Sigfox identifier Datetime Temperature Humidity SNR
003A4BC0 2019-04-23 14:41:00 16.4 32 22.7
003A4BC0 2019-04-23 14:06:49 16.2 32 22.8
003A4BC0 2019-04-23 13:32:38 16.2 32 22.9
003A4BC0 2019-04-23 12:58:28 16 32 22.9
003A4BC0 2019-04-23 12:24:17 16 32 22.9
003A4BC0 2019-04-23 11:50:07 15.8 32 23.1
003A4BC0 2019-04-23 11:15:58 15.8 32 23.2
003A4BC0 2019-04-23 10:41:48 15.7 32 23.3
003A4BC0 2019-04-23 10:07:38 15.6 32 23.3
003A4BC0 2019-04-23 09:33:27 15.6 32 23.3
003A4BC0 2019-04-23 08:59:16 15.6 32 23.4
003A4BC0 2019-04-23 08:25:06 15.6 32 23.4
003A4BC0 2019-04-23 07:50:55 15.6 32 23.4
003A4BC0 2019-04-23 07:16:44 15.6 32 23.4
003A4BC0 2019-04-23 06:42:34 15.6 32 23.4
003A4BC0 2019-04-23 06:08:23 15.6 32 23.4
003A4BC0 2019-04-23 05:34:11 15.5 32 23.2
003A4BC0 2019-04-23 04:59:59 15.4 32 23.2
003A4BC0 2019-04-23 04:25:48 15.5 32 23.1
003A4BC0 2019-04-23 03:51:36 15.6 32 23.1
003A4BC0 2019-04-23 03:17:24 15.4 32 23.1
003A4BC0 2019-04-23 02:43:13 15.4 32 23.1
003A4BC0 2019-04-23 02:09:01 15.5 32 23.1
003A4BC0 2019-04-23 01:34:49 15.6 32 23.2
003A4BC0 2019-04-23 01:00:36 15.6 32 23.2
003A4BC0 2019-04-23 00:26:23 15.6 32 23.2
003A4BC0 2019-04-22 23:52:09 15.6 32 23.2
003A4BC0 2019-04-22 23:17:56 15.6 32 23.3
003A4BC0 2019-04-22 22:43:44 15.6 32 23.2
003A4BC0 2019-04-22 22:09:30 15.6 31 23.3
003A4BC0 2019-04-22 21:35:16 15.6 31 23.2
003A4BC0 2019-04-22 21:01:02 15.8 31 23.3
003A4BC0 2019-04-22 20:26:49 15.8 31 23.2
003A4BC0 2019-04-22 19:52:37 15.8 31 23.2
003A4BC0 2019-04-22 19:18:24 15.8 31 23.4
003A4BC0 2019-04-22 18:44:12 16 31 23.3
003A4BC0 2019-04-22 18:10:01 16 31 23.4
003A4BC0 2019-04-22 17:35:49 16 31 23.4
003A4BC0 2019-04-22 17:01:37 16 31 23.4
003A4BC0 2019-04-22 16:27:24 15.9 31 23.4
003A4BC0 2019-04-22 15:53:13 15.8 31 23.6
003A4BC0 2019-04-22 15:19:01 15.8 31 23.6
003A4BC0 2019-04-22 14:44:51 15.8 31 23.7
003A4BC0 2019-04-22 14:10:39 15.8 31 23.7
003A4BC0 2019-04-22 13:36:28 15.8 31 23.6
003A4BC0 2019-04-22 13:02:17 15.7 31 23.7
003A4BC0 2019-04-22 12:28:05 15.7 31 23.7
003A4BC0 2019-04-22 11:53:54 15.6 31 23.7
003A4BC0 2019-04-22 11:19:43 15.7 31 23.7
003A4BC0 2019-04-22 10:45:31 15.6 31 23.7
003A4BC0 2019-04-22 10:11:20 15.6 31 23.7
003A4BC0 2019-04-22 09:37:08 15.6 31 23.7
003A4BC0 2019-04-22 09:02:56 15.6 31 23.7
003A4BC0 2019-04-22 08:28:44 15.6 31 23.6
003A4BC0 2019-04-22 07:54:31 15.6 31 23.6
003A4BC0 2019-04-22 07:20:19 15.6 31 23.6
003A4BC0 2019-04-22 06:46:05 15.6 31 23.6
003A4BC0 2019-04-22 06:11:52 15.6 31 23.6
003A4BC0 2019-04-22 05:37:39 15.7 31 23.7
003A4BC0 2019-04-22 05:03:27 15.6 31 23.7
003A4BC0 2019-04-22 04:29:15 15.6 31 23.6
003A4BC0 2019-04-22 03:55:04 15.6 31 23.6
003A4BC0 2019-04-22 03:20:52 15.6 31 23.6
003A4BC0 2019-04-22 02:46:40 15.6 31 23.6
003A4BC0 2019-04-22 02:12:28 15.5 31 23.6
003A4BC0 2019-04-22 01:38:16 15.6 31 23.6
003A4BC0 2019-04-22 01:04:04 15.3 31 23.5
003A4BC0 2019-04-22 00:29:52 15.4 31 23.4
003A4BC0 2019-04-21 23:55:41 15.5 31 23.3
003A4BC0 2019-04-21 23:21:31 15.4 31 23.4
003A4BC0 2019-04-21 22:47:19 15.4 31 23.4
003A4BC0 2019-04-21 22:13:09 15.4 31 23.4
003A4BC0 2019-04-21 21:38:58 15.4 31 23.4
003A4BC0 2019-04-21 21:04:47 15.4 31 23.3
003A4BC0 2019-04-21 20:30:37 15.4 31 23.3
003A4BC0 2019-04-21 19:56:27 15.5 31 23.1
003A4BC0 2019-04-21 19:22:16 15.4 31 23
003A4BC0 2019-04-21 18:48:07 15.4 31 23
003A4BC0 2019-04-21 18:13:56 15.4 31 23.1
003A4BC0 2019-04-21 17:39:44 15.4 30 23
003A4BC0 2019-04-21 17:05:34 15.3 30 23
003A4BC0 2019-04-21 16:31:24 15.4 30 22.9
003A4BC0 2019-04-21 15:57:12 15.3 30 22.9
003A4BC0 2019-04-21 15:23:01 15.4 30 22.8
003A4BC0 2019-04-21 14:48:49 15.3 30 22.8
003A4BC0 2019-04-21 14:14:37 15.3 30 22.8
003A4BC0 2019-04-21 13:40:26 15.3 30 22.8
003A4BC0 2019-04-21 13:06:14 15.3 30 22.8
003A4BC0 2019-04-21 12:32:02 15.4 30 22.8
003A4BC0 2019-04-21 11:57:50 15.3 30 22.7
003A4BC0 2019-04-21 11:23:38 15.3 30 22.7
003A4BC0 2019-04-21 10:49:26 15.3 30 22.7
003A4BC0 2019-04-21 10:15:15 15.3 30 22.7
003A4BC0 2019-04-21 09:41:05 15.4 30 22.7
003A4BC0 2019-04-21 09:06:53 15.5 30 22.7
003A4BC0 2019-04-21 08:32:41 15.6 30 22.6
003A4BC0 2019-04-21 07:58:29 15.6 30 22.7
003A4BC0 2019-04-21 07:24:18 15.6 30 22.6
003A4BC0 2019-04-21 06:50:06 15.6 30 22.6
003A4BC0 2019-04-21 06:15:54 15.6 30 22.7
003A4BC0 2019-04-21 05:41:43 15.6 30 22.8
003A4BC0 2019-04-21 05:07:32 15.6 30 22.9
003A4BC0 2019-04-21 04:33:20 15.6 30 22.8
003A4BC0 2019-04-21 03:59:09 15.6 30 22.9
003A4BC0 2019-04-21 03:24:57 15.5 30 22.9
003A4BC0 2019-04-21 02:50:47 15.6 30 22.9
003A4BC0 2019-04-21 02:16:36 15.5 30 22.9
003A4BC0 2019-04-21 01:42:25 15.6 30 22.9
003A4BC0 2019-04-21 01:08:13 15.6 30 22.9
003A4BC0 2019-04-21 00:34:02 15.6 30 22.9
003A4BC0 2019-04-20 23:59:49 15.6 30 22.9
003A4BC0 2019-04-20 23:25:37 15.3 30 22.9
003A4BC0 2019-04-20 22:51:24 15.3 30 22.9
003A4BC0 2019-04-20 22:17:12 15.4 30 23
003A4BC0 2019-04-20 21:43:01 15.4 30 23.2
003A4BC0 2019-04-20 21:08:49 15.5 30 23.3
003A4BC0 2019-04-20 20:34:37 15.5 30 23.3
003A4BC0 2019-04-20 20:00:26 15.5 29 23.4
003A4BC0 2019-04-20 19:26:13 15.5 29 23.4
003A4BC0 2019-04-20 18:52:02 15.5 29 23.4
003A4BC0 2019-04-20 18:17:51 15.6 29 23.4
003A4BC0 2019-04-20 17:43:39 15.6 30 23.3
003A4BC0 2019-04-20 17:09:28 15.4 29 23.4
003A4BC0 2019-04-20 16:35:17 15.5 29 23.3
003A4BC0 2019-04-20 16:01:06 15.5 29 23.3
003A4BC0 2019-04-20 15:26:55 15.6 29 23.4
003A4BC0 2019-04-20 14:52:44 15.3 29 23.4
003A4BC0 2019-04-20 14:18:32 15.3 29 23.3
003A4BC0 2019-04-20 13:44:21 15.3 29 23.9
003A4BC0 2019-04-20 13:10:09 15.3 29 23.9
003A4BC0 2019-04-20 12:35:57 15.4 29 23.9
003A4BC0 2019-04-20 12:01:46 15.4 29 23.9
003A4BC0 2019-04-20 11:27:35 15.5 29 23.9
003A4BC0 2019-04-20 10:53:24 15.4 29 23.8
003A4BC0 2019-04-20 10:19:13 15.4 29 23.8
003A4BC0 2019-04-20 09:45:02 15.6 29 23.9
003A4BC0 2019-04-20 09:10:51 15.5 29 23.8
003A4BC0 2019-04-20 08:36:40 15.6 29 23.7
003A4BC0 2019-04-20 08:02:29 15.6 29 23.7
003A4BC0 2019-04-20 07:28:19 15.6 29 23.6
003A4BC0 2019-04-20 06:54:06 15.7 29 23.5
003A4BC0 2019-04-20 06:19:54 15.6 29 23.5
003A4BC0 2019-04-20 05:45:42 15.6 29 23.5
003A4BC0 2019-04-20 05:11:30 15.6 29 23.5
003A4BC0 2019-04-20 04:37:19 15.6 29 23.5
003A4BC0 2019-04-20 04:03:06 15.6 29 23.6
003A4BC0 2019-04-20 03:28:55 15.6 29 23.6
003A4BC0 2019-04-20 02:54:43 15.6 29 23.6
003A4BC0 2019-04-20 02:20:32 15.7 28 23.5
003A4BC0 2019-04-20 01:46:19 15.8 28 23.4
003A4BC0 2019-04-20 01:12:11 15.8 28 23.4
003A4BC0 2019-04-20 00:37:56 15.8 28 23.3
003A4BC0 2019-04-20 00:03:44 15.8 28 23.4
003A4BC0 2019-04-19 23:29:32 15.9 28 22.7
003A4BC0 2019-04-19 22:55:21 15.9 28 22.7
003A4BC0 2019-04-19 22:21:09 16 28 22.8
003A4BC0 2019-04-19 21:46:58 16 28 22.8
003A4BC0 2019-04-19 21:12:48 16 28 22.9
003A4BC0 2019-04-19 20:38:37 16 28 23
003A4BC0 2019-04-19 20:04:25 16 28 23
003A4BC0 2019-04-19 19:30:13 16 28 23.1
003A4BC0 2019-04-19 18:56:02 16.1 28 23.2
003A4BC0 2019-04-19 18:21:50 16.2 28 23.2
003A4BC0 2019-04-19 17:47:39 16.2 28 23.2
003A4BC0 2019-04-19 17:13:28 16.2 28 23.2
003A4BC0 2019-04-19 16:39:17 16.1 28 23.2
003A4BC0 2019-04-19 16:05:07 16 28 23.3
003A4BC0 2019-04-19 15:30:54 16 28 23.2
003A4BC0 2019-04-19 14:56:43 16 28 23.2
003A4BC0 2019-04-19 14:22:31 16 28 23.2
003A4BC0 2019-04-19 13:48:19 16 28 23.2
003A4BC0 2019-04-19 13:14:07 15.9 28 23.3
003A4BC0 2019-04-19 12:39:54 15.8 28 23.3
003A4BC0 2019-04-19 12:05:43 15.8 28 23.3
003A4BC0 2019-04-19 11:31:31 15.8 28 23.4
003A4BC0 2019-04-19 10:57:19 15.8 28 23.5
003A4BC0 2019-04-19 10:23:06 15.8 28 23.5
003A4BC0 2019-04-19 09:48:54 15.8 28 23.5
003A4BC0 2019-04-19 09:14:42 15.7 28 23.5
003A4BC0 2019-04-19 08:40:30 15.7 27 23.5
003A4BC0 2019-04-19 08:06:22 15.7 27 23.5
003A4BC0 2019-04-19 07:32:07 15.7 27 23.6
003A4BC0 2019-04-19 06:57:54 15.7 27 23.6
003A4BC0 2019-04-19 06:23:41 15.8 27 23.6
003A4BC0 2019-04-19 05:49:28 15.8 27 23.6
003A4BC0 2019-04-19 05:15:16 15.8 27 23.6
003A4BC0 2019-04-19 04:41:04 15.8 27 23.5
003A4BC0 2019-04-19 04:06:51 15.8 27 23.5
003A4BC0 2019-04-19 03:32:40 15.9 27 23.6
003A4BC0 2019-04-19 02:58:29 15.8 27 23.5
003A4BC0 2019-04-19 02:24:18 15.8 27 23.4
003A4BC0 2019-04-19 01:50:06 15.9 27 23.4
003A4BC0 2019-04-19 01:15:56 16 27 23.5
003A4BC0 2019-04-19 00:41:44 16 27 23.5
003A4BC0 2019-04-19 00:07:34 16.1 27 23.5
003A4BC0 2019-04-18 23:33:21 16.2 27 23.4
003A4BC0 2019-04-18 22:59:10 16.3 27 23.4
003A4BC0 2019-04-18 22:24:58 16.4 27 23.4
003A4BC0 2019-04-18 21:50:46 16.4 27 23.4
003A4BC0 2019-04-18 21:16:35 16.4 27 23.5
003A4BC0 2019-04-18 20:42:24 16.4 27 23.4
003A4BC0 2019-04-18 20:08:12 16.4 27 23.4
003A4BC0 2019-04-18 19:34:01 16.5 27 23.5
003A4BC0 2019-04-18 18:59:50 16.6 27 23.5
003A4BC0 2019-04-18 18:25:38 16.5 27 23.5
003A4BC0 2019-04-18 17:51:26 16.5 27 23.5
003A4BC0 2019-04-18 17:17:15 16.6 27 23.4
003A4BC0 2019-04-18 16:43:01 16.5 27 23.4
003A4BC0 2019-04-18 16:08:50 16.5 27 23.4
003A4BC0 2019-04-18 15:34:37 16.4 27 23.4
003A4BC0 2019-04-18 15:00:25 16.4 27 23.4
003A4BC0 2019-04-18 14:26:13 16.3 26 23.4
003A4BC0 2019-04-18 13:52:01 16.2 26 23.5
003A4BC0 2019-04-18 13:17:50 16.1 26 23.4
003A4BC0 2019-04-18 12:43:37 16 26 23.4
003A4BC0 2019-04-18 12:09:25 16 26 23.5
003A4BC0 2019-04-18 11:35:13 16.1 26 23.4
003A4BC0 2019-04-18 11:01:02 16.1 26 23.4
003A4BC0 2019-04-18 10:26:51 16.1 26 23.4
003A4BC0 2019-04-18 09:52:39 16 26 23.4
003A4BC0 2019-04-18 09:18:26 15.8 26 23.5
003A4BC0 2019-04-18 08:44:14 15.9 26 23.6
003A4BC0 2019-04-18 08:10:00 16.1 26 23.6
003A4BC0 2019-04-18 07:35:47 16 26 23.4
003A4BC0 2019-04-18 07:01:34 16 26 23.3
003A4BC0 2019-04-18 06:27:22 16 26 23.3
003A4BC0 2019-04-18 05:53:09 16 26 23.3
003A4BC0 2019-04-18 05:18:56 15.9 25 23.3
003A4BC0 2019-04-18 04:44:44 15.9 25 23.2
003A4BC0 2019-04-18 04:10:32 15.9 25 23
003A4BC0 2019-04-18 03:36:19 15.9 25 22.9
003A4BC0 2019-04-18 03:02:08 15.9 25 22.7
003A4BC0 2019-04-18 02:27:56 16 25 22.6
003A4BC0 2019-04-18 01:53:44 16 25 22.6
003A4BC0 2019-04-18 01:19:33 16.1 25 22.4
003A4BC0 2019-04-18 00:45:22 16.3 25 22.2
003A4BC0 2019-04-18 00:11:12 16.4 25 22.2
003A4BC0 2019-04-17 23:37:01 16.5 25 22.9
003A4BC0 2019-04-17 23:02:51 16.4 25 22.8
003A4BC0 2019-04-17 22:28:40 16.7 25 22.8
003A4BC0 2019-04-17 21:54:28 16.6 25 22.8
003A4BC0 2019-04-17 21:20:17 16.6 25 22.7
003A4BC0 2019-04-17 20:46:07 16.5 25 22.7
003A4BC0 2019-04-17 20:11:58 16.4 25 22.5
003A4BC0 2019-04-17 19:37:47 16.4 24 22.4
003A4BC0 2019-04-17 19:03:38 16.5 24 22.3
003A4BC0 2019-04-17 18:29:28 16.4 24 22.2
003A4BC0 2019-04-17 17:55:21 16.5 24 22.4
003A4BC0 2019-04-17 17:21:08 16.4 24 22.4
003A4BC0 2019-04-17 16:46:57 16.5 24 22.2
003A4BC0 2019-04-17 16:12:46 16.5 24 22.2
003A4BC0 2019-04-17 15:38:36 16.5 24 22.1
003A4BC0 2019-04-17 15:04:26 16.4 24 22.2
003A4BC0 2019-04-17 14:30:15 16.7 24 22.2
003A4BC0 2019-04-17 13:56:05 16.6 24 22.4
003A4BC0 2019-04-17 12:47:45 17.1 24 22.3
003A4BC0 2019-04-17 12:13:32 16.9 24 22.3
003A4BC0 2019-04-17 11:39:21 16.9 24 22.4
003A4BC0 2019-04-17 11:05:11 16.7 23 22.3
003A4BC0 2019-04-17 10:30:59 16.7 23 23.1
003A4BC0 2019-04-17 09:56:47 16.7 23 22.2
003A4BC0 2019-04-17 09:22:34 16.5 23 22.1
003A4BC0 2019-04-17 08:48:22 16.6 23 22
003A4BC0 2019-04-17 08:14:10 16.7 23 21.9
003A4BC0 2019-04-17 07:39:59 16.9 23 21.9
003A4BC0 2019-04-17 07:05:47 17.1 23 21.8
003A4BC0 2019-04-17 06:31:35 17.3 23 22
003A4BC0 2019-04-17 05:57:24 17.3 23 22
003A4BC0 2019-04-17 05:23:12 17.3 23 22.2
003A4BC0 2019-04-17 04:49:01 17.5 22 22.2
003A4BC0 2019-04-17 04:14:49 17.5 22 22.1
003A4BC0 2019-04-17 03:40:38 17.5 22 22
003A4BC0 2019-04-17 03:06:25 17.8 22 21.9
003A4BC0 2019-04-17 02:32:14 17.8 22 21.9
003A4BC0 2019-04-17 01:58:02 17.8 22 21.8
003A4BC0 2019-04-17 01:23:51 17.8 22 21.6
003A4BC0 2019-04-17 00:49:40 17.9 22 21.5
003A4BC0 2019-04-17 00:15:29 17.8 22 21.3
003A4BC0 2019-04-16 23:41:17 17.8 22 21.1
003A4BC0 2019-04-16 23:07:05 17.6 21 21
003A4BC0 2019-04-16 22:32:53 17.8 21 21
003A4BC0 2019-04-16 21:58:41 18.2 21 20.9
003A4BC0 2019-04-16 21:24:29 18.4 21 20.9
003A4BC0 2019-04-16 20:50:17 18.6 21 20.8
003A4BC0 2019-04-16 20:16:05 18.6 21 19.2
003A4BC0 2019-04-16 19:41:53 18.8 21 19.2
003A4BC0 2019-04-16 19:07:42 18.8 21 19.2
003A4BC0 2019-04-16 18:33:31 18.6 21 19.1
003A4BC0 2019-04-16 17:59:21 18.8 20 18.9
003A4BC0 2019-04-16 17:25:12 19 20 18.8
003A4BC0 2019-04-16 16:51:02 19 20 18.8
003A4BC0 2019-04-16 16:16:51 19.2 20 18.1
003A4BC0 2019-04-16 15:42:41 19.5 20 17.9
003A4BC0 2019-04-16 15:08:31 19.7 20 17.2
003A4BC0 2019-04-16 14:34:20 20.3 19 19.4
003A4BC0 2019-04-16 14:00:07 21 21 19.4
003A4BC0 2019-04-16 13:25:55 21 21 19.4
003A4BC0 2019-04-16 12:51:42 21 21 19.2
003A4BC0 2019-04-16 12:17:33 21 21 19.2
003A4BC0 2019-04-16 11:43:19 21 21 19.1
003A4BC0 2019-04-16 11:09:11 21 21 19.1
003A4BC0 2019-04-16 10:35:00 21 20 19.1
003A4BC0 2019-04-16 10:00:46 21 20 19.1
003A4BC0 2019-04-16 09:26:35 21 20 19.2
003A4BC0 2019-04-16 08:52:23 21 20 19.3
003A4BC0 2019-04-16 08:18:12 21 20 19.1
003A4BC0 2019-04-16 07:44:02 20.9 20 19.1
003A4BC0 2019-04-16 07:09:51 21 20 20.8
003A4BC0 2019-04-16 06:35:41 21 20 20.7
003A4BC0 2019-04-16 06:01:31 21 20 20.6
003A4BC0 2019-04-16 05:27:20 20.9 20 20.6
003A4BC0 2019-04-16 04:53:08 21 20 20.6
003A4BC0 2019-04-16 04:18:57 21 20 20.6
003A4BC0 2019-04-16 03:44:45 21 20 20.6
003A4BC0 2019-04-16 03:10:32 21 20 21.9
003A4BC0 2019-04-16 02:36:20 21 20 21.8
003A4BC0 2019-04-16 02:02:08 21 20 21.8
003A4BC0 2019-04-16 01:27:57 21 20 22
003A4BC0 2019-04-16 00:53:45 21 20 22.1
003A4BC0 2019-04-16 00:19:34 21 20 21.1
003A4BC0 2019-04-15 23:45:22 21 20 21.3
003A4BC0 2019-04-15 23:11:11 21 20 21.4
003A4BC0 2019-04-15 22:37:00 21 20 21.5
003A4BC0 2019-04-15 22:02:50 21.1 20 21.6
003A4BC0 2019-04-15 21:28:39 21.1 20 21.7
003A4BC0 2019-04-15 20:54:29 21 19 21.9
003A4BC0 2019-04-15 20:20:20 21 20 22
003A4BC0 2019-04-15 19:46:07 21 19 22.2
003A4BC0 2019-04-15 19:11:56 21 19 22.2
003A4BC0 2019-04-15 18:37:45 21 19 22.4
003A4BC0 2019-04-15 18:03:34 21.1 19 22.5
003A4BC0 2019-04-15 17:29:22 21.2 19 22.7
003A4BC0 2019-04-15 16:55:10 21.2 19 21.8
003A4BC0 2019-04-15 16:20:59 21.2 19 21.9
003A4BC0 2019-04-15 15:46:50 21.3 19 22.3
003A4BC0 2019-04-15 15:12:37 21.4 19 22.5
003A4BC0 2019-04-15 14:38:27 21.4 19 22.6
003A4BC0 2019-04-15 14:04:16 21.6 19 22.7
003A4BC0 2019-04-15 13:30:05 21.7 18 23
003A4BC0 2019-04-15 12:55:54 22 18 22.2
003A4BC0 2019-04-15 12:21:45 22.2 18 22.5
003A4BC0 2019-04-15 11:47:33 22.2 16 22.6
003A4BC0 2019-04-15 11:13:23 22.2 16 22.7
003A4BC0 2019-04-15 10:39:13 22 16 22.7
003A4BC0 2019-04-15 10:05:03 22 17 22.7
003A4BC0 2019-04-15 09:30:52 22 17 22.7
003A4BC0 2019-04-15 08:56:42 21.9 17 22.7
003A4BC0 2019-04-15 08:22:31 21.8 17 22.8
003A4BC0 2019-04-15 07:48:20 21.8 17 22.9
003A4BC0 2019-04-15 07:14:09 21.8 17 22.9
003A4BC0 2019-04-15 06:39:58 21.8 17 22.8
003A4BC0 2019-04-15 06:05:47 21.8 17 22.9
003A4BC0 2019-04-15 05:31:35 21.8 17 22.8
003A4BC0 2019-04-15 04:57:24 21.8 17 22.8
003A4BC0 2019-04-15 04:23:12 21.8 17 22.7
003A4BC0 2019-04-15 03:49:00 21.8 17 22.6
003A4BC0 2019-04-15 03:14:49 21.8 17 22.6
003A4BC0 2019-04-15 02:40:38 21.8 17 22.5
003A4BC0 2019-04-15 02:06:26 21.8 17 22.6
003A4BC0 2019-04-15 01:32:15 21.7 17 22.5
003A4BC0 2019-04-15 00:58:03 21.7 18 22.5
003A4BC0 2019-04-15 00:23:54 21.7 18 22.5
003A4BC0 2019-04-14 23:49:43 21.8 18 22.5
003A4BC0 2019-04-14 23:15:33 21.8 18 22.4
003A4BC0 2019-04-14 22:41:23 21.8 18 22.5
003A4BC0 2019-04-14 22:07:13 21.8 18 22.3
003A4BC0 2019-04-14 21:33:04 21.9 18 22.5
003A4BC0 2019-04-14 20:58:55 21.9 18 22.3
003A4BC0 2019-04-14 20:24:46 21.9 18 22.4
003A4BC0 2019-04-14 19:50:36 21.8 18 22.4
003A4BC0 2019-04-14 19:16:26 21.8 18 22.5
003A4BC0 2019-04-14 18:42:17 21.8 18 22.5
003A4BC0 2019-04-14 18:08:07 21.8 18 22.5
003A4BC0 2019-04-14 17:33:56 21.8 18 22.6
003A4BC0 2019-04-14 16:59:45 21.8 18 23.4
003A4BC0 2019-04-14 16:25:35 21.8 18 23.4
003A4BC0 2019-04-14 15:51:25 21.8 18 24
003A4BC0 2019-04-14 15:17:15 21.8 18 24.1
003A4BC0 2019-04-14 14:43:05 21.8 18 24.2
003A4BC0 2019-04-14 14:08:54 21.8 18 24.3
003A4BC0 2019-04-14 13:34:43 21.8 18 24.3
003A4BC0 2019-04-14 13:00:32 21.8 18 24.4
003A4BC0 2019-04-14 12:26:21 21.8 18 24.4
003A4BC0 2019-04-14 11:52:10 21.8 18 24.4
003A4BC0 2019-04-14 11:17:59 21.8 18 24.4
003A4BC0 2019-04-14 10:43:48 21.8 18 24.4
003A4BC0 2019-04-14 10:09:38 21.8 18 24.4
003A4BC0 2019-04-14 09:35:26 21.8 18 24.4
003A4BC0 2019-04-14 09:01:15 21.8 18 24.4
003A4BC0 2019-04-14 08:27:04 21.8 18 24.5
003A4BC0 2019-04-14 07:52:53 21.8 18 24.5
003A4BC0 2019-04-14 07:18:42 21.8 18 24.4
003A4BC0 2019-04-14 06:44:30 21.8 18 24.4
003A4BC0 2019-04-14 06:10:19 21.8 18 24.4
003A4BC0 2019-04-14 05:36:07 21.8 18 24.4
003A4BC0 2019-04-14 05:01:55 21.8 18 24.4
003A4BC0 2019-04-14 04:27:42 21.8 18 24.4
003A4BC0 2019-04-14 03:53:30 21.8 18 24.4
003A4BC0 2019-04-14 03:19:18 21.8 18 24.3
003A4BC0 2019-04-14 02:45:06 21.8 18 23.7
003A4BC0 2019-04-14 02:10:53 21.8 18 23.7
003A4BC0 2019-04-14 01:36:41 21.9 18 23
003A4BC0 2019-04-14 01:02:31 21.9 18 23.1
003A4BC0 2019-04-14 00:28:20 22 18 23.7
003A4BC0 2019-04-13 23:54:09 21.9 18 23.6
003A4BC0 2019-04-13 23:19:58 22 18 23.6
003A4BC0 2019-04-13 22:45:47 22 18 23.7
003A4BC0 2019-04-13 22:11:36 22 18 23.7
003A4BC0 2019-04-13 21:37:25 22 17 23.6
003A4BC0 2019-04-13 21:03:14 22 17 23.7
003A4BC0 2019-04-13 20:29:03 22 17 23.7
003A4BC0 2019-04-13 19:54:52 22 18 23.7
003A4BC0 2019-04-13 19:20:42 22.1 18 23.7
003A4BC0 2019-04-13 18:46:31 22 18 23.7
003A4BC0 2019-04-13 18:12:20 22.1 18 23.5
003A4BC0 2019-04-13 17:38:09 22.2 18 23.5
003A4BC0 2019-04-13 17:03:58 22.1 18 23.6
003A4BC0 2019-04-13 16:29:47 22.2 18 24.2
003A4BC0 2019-04-13 15:55:34 22.2 18 24.2
003A4BC0 2019-04-13 15:21:22 22.2 18 24.1
003A4BC0 2019-04-13 14:47:09 22.2 18 24.1
003A4BC0 2019-04-13 14:12:57 22.2 18 24.1
003A4BC0 2019-04-13 13:38:46 22.2 18 24.1
003A4BC0 2019-04-13 13:04:34 22.2 18 24.1
003A4BC0 2019-04-13 12:30:24 22.2 18 24.1
003A4BC0 2019-04-13 11:56:12 22.2 18 24.1
003A4BC0 2019-04-13 11:22:00 22.2 18 24.1
003A4BC0 2019-04-13 10:47:48 22.2 18 24
003A4BC0 2019-04-13 10:13:35 22.2 18 23.4
003A4BC0 2019-04-13 09:39:23 22.2 18 23.5
003A4BC0 2019-04-13 09:05:11 22.2 18 23.4
003A4BC0 2019-04-13 08:31:00 22.2 18 23.4
003A4BC0 2019-04-13 07:56:49 22.2 18 23.4
003A4BC0 2019-04-13 07:22:39 22.2 18 23.4
003A4BC0 2019-04-13 06:48:27 22.2 17 23.3
003A4BC0 2019-04-13 06:14:16 22.2 18 23.2
003A4BC0 2019-04-13 05:40:03 22.2 18 23.2
003A4BC0 2019-04-13 05:05:53 22.2 18 23.1
003A4BC0 2019-04-13 04:31:41 22.2 18 23.8
003A4BC0 2019-04-13 03:57:29 22.2 17 24.4
003A4BC0 2019-04-13 03:23:17 22.3 18 24.4
003A4BC0 2019-04-13 02:49:05 22.4 18 24.5
003A4BC0 2019-04-13 02:14:52 22.5 18 24
003A4BC0 2019-04-13 01:40:38 22.5 18 23.9
003A4BC0 2019-04-13 01:06:25 22.5 18 24
003A4BC0 2019-04-13 00:32:12 22.4 18 24.1
003A4BC0 2019-04-12 23:57:58 22.5 18 24.2
003A4BC0 2019-04-12 23:23:43 22.5 18 24.3
003A4BC0 2019-04-12 22:49:31 22.7 18 24.3
003A4BC0 2019-04-12 22:15:17 22.7 19 24.5
003A4BC0 2019-04-12 21:41:03 22.7 19 24.5
003A4BC0 2019-04-12 21:06:50 22.7 19 24.6
003A4BC0 2019-04-12 20:32:36 22.7 19 24.8
003A4BC0 2019-04-12 19:58:24 22.7 18 25
003A4BC0 2019-04-12 19:24:11 22.8 18 25.1
003A4BC0 2019-04-12 18:49:58 22.9 18 25.3
003A4BC0 2019-04-12 18:15:44 22.9 17 25.5
003A4BC0 2019-04-12 17:41:31 22.9 17 25.7
003A4BC0 2019-04-12 17:07:18 22.9 17 26
003A4BC0 2019-04-12 16:33:05 22.9 18 26.5
003A4BC0 2019-04-12 15:58:52 22.8 17 27
003A4BC0 2019-04-12 15:24:39 22.6 18 27.8
003A4BC0 2019-04-12 14:50:26 22.5 18 28.7
003A4BC0 2019-04-12 14:16:12 22.1 19 27.9
003A4BC0 2019-04-12 13:41:58 21.5 19 23.5
003A4BC0 2019-04-12 13:07:45 20.7 21 0